www.pogodaiklimat.ru

Погода и климат >> Архив погоды >> Казахстан >> Пешной


ПОГОДА в Пешном

  • Прогноз погоды в Пешном
  • Монитор погоды в Пешном

АРХИВ ПОГОДЫ в Пешном

Время (UTC), дата Ветер
(напр.,м/с)
 
Видим.   Явления Облачность Т
(С)
Тd
(С)
f
(%)
Тe
(С)
Тes
(С)
Комфортность P
(гПа)
Po
(гПа)
Тmin
(С)
Tmax
(С)
R
(мм)
R24
(мм)
S
(см)
03 15.03 штиль 0 10 км 3/0
[Ci fib]
-11.3 -12.6 90 -11 -11 1024.8 1028.1
06 15.03 В 4 10 км 4/0
[Ac cast Ci fib]
+0.4 -6.3 61 -4 -3 1024.9 1028.0 -11.6
09 15.03 ЮВ 4 10 км 6/0
[Ac cast Ci fib]
+3.6 -5.3 52 -0 +3 1023.3 1026.4
12 15.03 СВ 4 10 км 8/0
[Ac cast Ci fib]
+6.7 -9.7 30 +4 +5 1021.2 1024.2
15 15.03 В 2 10 км 10/0
[As op]
+4.2 -10.4 34 +2 +2 1020.3 1023.4 +7.0
00 16.03 В 6 н/о {ливн. осадки} 10/10 300 м
[Cb cap]
+4.1 -5.0 51 -1 -1 1016.6 1019.7
03 16.03 СВ 4 10 км 10/6 300 м
[Cu med, cong As op]
+3.4 -4.8 55 -1 -1 1016.4 1019.5
06 16.03 В 8 10 км 9/5 600 м
[Cb calv Cs]
+4.7 -4.5 51 -1 -0 1015.8 1018.9 +2.9 0.0
09 16.03 В 10 10 км 10/9 300 м
[Frnb As op]
+6.4 -4.6 45 +1 +1 1014.6 1017.6
12 16.03 В 8 4000 м дымка {дождь} 10/9 300 м
[Frnb As op]
+7.1 -5.0 42 +3 +3 1012.8 1015.8
15 16.03 В 6 10 км 10/9 300 м
[Frnb As op]
+5.8 -4.8 46 +2 +2 1012.9 1015.9 +7.7
18 16.03 В 6 н/о 10/10 1000 м
[Sc]
+6.0 -7.0 39 +2 +2 1012.5 1015.5 +7.7 0.0
21 16.03 В 4 н/о слаб. дождь 10/0 600 м
[As op]
+2.8 +1.2 89 -2 -2 1012.0 1015.1
00 17.03 СВ 2 н/о слаб. дождь 10/0 600 м
[As op]
+2.6 +0.5 86 -1 -1 1011.0 1014.1
03 17.03 СВ 2 4000 м слаб. дождь 10/0 600 м
[As op]
+2.4 +1.1 91 -1 -1 1010.9 1014.0
06 17.03 СВ 4 4000 м слаб. дождь 10/0 600 м
[As op]
+2.7 0.0 82 -2 -2 1011.2 1014.3 +1.9 3
09 17.03 СВ 2 10 км {дождь} 10/10 1000 м
[Sc]
+3.3 +0.9 84 0 0 1010.7 1013.8
15 17.03 СВ 2 10 км 10/8 1000 м
[Frnb As trans]
+3.2 +0.8 84 0 0 1010.3 1013.4 +4.1
18 17.03 С 2 н/о 10/10 1000 м
[Sc]
+3.1 +1.0 86 0 0 1012.6 1015.7 +4.1 2
21 17.03 С 2 н/о 10/10 1000 м
[Sc]
+2.9 +0.5 84 -0 -0 1012.8 1015.9
03 18.03 С 2 10 км 10/10 1000 м
[Frnb]
+2.1 -0.1 85 -1 -1 1013.5 1018.6
06 18.03 С 2 10 км 8/8 1000 м
[Cu med, cong]
+3.6 -1.4 70 +1 +2 1017.6 1020.7 +1.7
09 18.03 С 4 10 км 8/8 1000 м
[Cu Sc]
+5.7 -0.7 63 +2 +3 1018.6 1021.6
12 18.03 С 6 10 км 8/8 1000 м
[Cu Sc]
+4.5 -0.6 69 -1 -0 1018.9 1022.0
15 18.03 С 4 10 км 10/10 1000 м
[Sc]
+2.7 -1.2 75 -2 -2 1020.9 1024.0 +6.6
21 18.03 СЗ 4 н/о 8/8 1000 м
[Cu Sc]
+0.3 -2.7 80 -5 -5 1022.7 1025.8
03 19.03 СЗ 4 10 км 10/10 1000 м
[Sc]
-0.8 -4.3 77 -6 -6 1023.3 1026.4
06 19.03 СЗ 4 10 км 10/10 1000 м
[Sc]
+1.1 -1.5 83 -4 -4 1024.5 1027.6 -1.0
09 19.03 СЗ 4 10 км 10/9 1000 м
[Frnb As op]
+3.2 -2.2 68 -1 -1 1023.8 1026.9
12 19.03 СЗ 4 10 км 10/9 1000 м
[Frnb As op]
+4.2 -0.3 72 0 0 1023.4 1026.5
15 19.03 С 2 10 км 10/9 300 м
[Frnb As op]
+3.8 +0.9 81 +1 +1 1023.8 1026.9 +4.4
18 19.03 СЗ 2 н/о 10/10 1000 м
[Sc]
+4.6 +1.3 79 +2 +2 1024.2 1027.3 +4.4
21 19.03 СЗ 2 н/о 8/8 1000 м
[Sc]
+3.4 +0.5 81 +1 +1 1024.7 1027.8
00 20.03 С 2 н/о 9/9 1000 м
[Sc]
+1.1 -1.5 83 -2 -2 1023.1 1026.2
03 20.03 С 4 10 км 4/4 1000 м
[Sc diur, vesp]
-3.1 -4.8 88 -9 -9 1023.6 1026.7
06 20.03 С 4 10 км ясно +2.3 -2.6 70 -2 -0 1023.5 1026.6 -3.2
09 20.03 С 4 10 км ясно +9.5 -0.2 51 +7 +12 1022.7 1025.7
12 20.03 СЗ 6 10 км 1/1 600 м
[Cb calv]
+12.8 +2.3 49 +11 +12 1021.5 1024.5
15 20.03 С 2 10 км ясно +10.5 +2.7 58 +9 +10 1021.5 1024.5 +13.5
18 20.03 С 2 н/о ясно +4.0 +1.2 82 +1 +1 1022.2 1025.3 +13.5
21 20.03 СЗ 2 н/о ясно -0.8 -2.6 88 -5 -5 1021.6 1024.7
00 21.03 СЗ 2 н/о ясно -3.4 -5.5 85 -7 -7 1021.0 1021.1
03 21.03 СЗ 2 10 км 3/0
[Cs]
-3.6 -5.4 87 -8 -8 1020.9 1024.0

 

Местоположение метеостанции Пешной (Атырауская область, Казахстан): широта 56.92 долгота 41.68 высота над уровнем моря -21 м.

В архиве по умолчанию представлена погода в Пешном за последнюю неделю. Архивные данные за месяц целиком и за предыдущие месяцы, начиная с января 2011 года, Вы можете получить, выбрав интересующий диапазон дат из раскрывающегося списка и нажав кнопку "Ввод!".


*Определитесь, кто Вы:
робот инопланетянин человек

Внимание! Время в таблицах - всемирное. Для получения местного времени необходимо прибавить поправку, которая равна 5 ч.

Смотрите также архив погоды в соседних городах и на ближайших метеорологических станциях:

Погода в Шуе (Ивановская область, Россия) (19 км)
Погода в Вичуге (Ивановская область, Россия) (36 км)
Погода в Иванове (Ивановская область, Россия) (43 км)
Погода в Приволжске (Ивановская область, Россия) (57 км)
Погода в Плесе (Ивановская область, Россия) (59 км)
Погода в Кинешме (Ивановская область, Россия) (63 км)
Погода в Коврове (Владимирская область, Россия) (65 км)
Погода в Тейково (Ивановская область, Россия) (70 км)
Погода в Вязниках (Владимирская область, Россия) (86 км)
Погода в Суздале (Владимирская область, Россия) (93 км)

Пояснения к столбцам:

Ветер - указаны скорость ветра в м/с - средняя за 10 мин, порывы в срок и между сроками (в фигурных скобках) и направление, откуда дует ветер: С - северный, СВ - северо-восточный, В - восточный, ЮВ - юго-восточный, Ю - южный, ЮЗ - юго-западный, З - западный, СЗ - северо-западный.
Видимость - горизонтальная дальность видимости в метрах или километрах. При видимости от 1 до 10 км при отсутствии осадков обычно наблюдается дымка, при ухудшении видимости до 1 км и менее - туман. В сухую погоду видимость может ухудшаться дымом, пылью или мглою.
Явления - указаны атмосферные явления, наблюдавшиеся в срок или в последний час перед сроком; фигурными скобками обозначены явления, наблюдавшиеся между сроками (за 1-3 часа до срока); квадратными скобками обозначены град или гололедные отложения с указанием их диаметра в мм.
Облачность - указаны через наклонную черту общая и нижняя облачность в баллах и высота нижней границы облаков в метрах; квадратными скобками обозначены формы облаков: Ci - перистые, Cs - перисто-слоистые, Cc - перисто-кучевые, Ac - высококучевые, As - высокослоистые, Sc - слоисто-кучевые, Ns - слоисто-дождевые, Cu - кучевые, Cb - кучево-дождевые. Подробнее классификацию облаков см. в Атласе облаков (PDF).
T - Температура воздуха - температура, измеренная на высоте 2 м над землей.
Td - Температура точки росы - температура, при понижении до которой содержащийся в воздухе водяной пар достигнет насыщения.
f - Относительная влажность воздуха - влажноcть воздуха, измеренная на высоте 2 м над землей.
Te - Эффективная температура - температура, которую ощущает одетый по сезону человек в тени. Характеристика душности погоды. При расчете учитывается влияние влажности воздуха и скорости ветра на теплоощущения человека.
Tes - Эффективная температура на солнце - температура, которую ощущает человек, с поправкой на солнечный нагрев. Характеристика знойности погоды. Зависит от высоты солнца над горизонтом, облачности и скорости ветра. Ночью, в пасмурную погоду, а также при ветре 12 м/с и более поправка равна нулю.
P - Атмосферное давление - приведенное к уровню моря атмосферное давление.
Po - Атмосферное давление - измеренное на уровне метеостанции атмосферное давление.
Tmin - Минимальная температура - минимум температуры воздуха на высоте 2 м над землей.
Tmax - Максимальная температура - максимум температуры воздуха на высоте 2 м над землей.
R - Количество осадков - Количество выпавших осадков за период времени, мм. При наведении курсора мыши на число - период времени, за который выпало указанное количество осадков.
R24 - Количество осадков - Количество выпавших осадков за 24 часа, мм.
S - Снежный покров - Высота снежного покрова, см. При наведении курсора мыши на число - состояние снежного покрова и степень покрытия местности в баллах.